Find Starlink 1556

NORAD ID: 46033 Int'l Des: 2020-055 Owner: SPXS Country: US Constellation: starlink operational
LEOCIRCULARSTARLINK_TYPE

リアルタイム位置

3D地球を読み込み中...

Starlink 1556について

説明を読み込み中...

次回通過

Passes for default location (London). Set your location on the main map for personalized predictions.

高度履歴

Loading altitude history...

軌道要素

1 46033U 20055G 26127.26657445 .00001506 00000-0 62967-4 0 9991
2 46033 53.1589 214.6289 0000673 60.1588 299.9479 15.30196364317834
Epoch: May 7, 2026 • Age: 5 hours

現在のステータス

高度 475.5 km
速度 7.63 km/s
衛星直下点 14.08°N, 19.62°W
打ち上げ日 Aug 7, 2020
運用期間 5.7 years
タイプ internet

技術仕様

分類 Payload
質量 260.00 kg
乾燥質量 248.00 kg
総質量 260.00 kg
長さ 0.20 m
直径 2.80 m
スパン 9.00 m
形状 Box + pan
製造者 SPXS
バスタイプ Starlink
フェーズステータス In Orbit
所有者/国 SPXS/US

Most Searched